Find Starlink 31651

NORAD ID: 59860 Int'l Des: 2024-098 Owner: SPXS Country: US Constellation: starlink operational
LEOCIRCULAR

实时位置

正在加载3D地球...

关于 Starlink 31651

正在加载描述...

即将过境

Passes for default location (London). Set your location on the main map for personalized predictions.

高度历史

Loading altitude history...

两行轨道根数

1 59860U 24098C 26125.55858174 .00000910 00000-0 42582-4 0 9995
2 59860 42.9998 316.8226 0000531 287.4416 72.6377 15.27582602110541
Epoch: May 5, 2026 • Age: 3 hours

当前状态

高度 482.3 km
速度 7.63 km/s
星下点 18.59°N, 136.47°W
发射日期 May 24, 2024
运行时间 1.9 years
类型 internet

技术详情

分类 Payload
质量 730.00 kg
干质量 700.00 kg
总质量 730.00 kg
长度 0.30 m
直径 4.10 m
跨度 29.00 m
形状 Box + pan
制造商 SPXS
平台类型 Starlink V2M
阶段状态 In Orbit
所有者/国家 SPXS/US

Most Searched